| time (UTC) | temp F | wind direction | speed knots | gust knots | rain 1hr in | rain 24hr in | rain mn in | humidity % | barometer mb |
| 20260503223006 | 52 | 233 | 0.9 | 4.3 | 0.00 | 0.28 | 0.05 | 45 | 1006.8 |
| 20260503221511 | 52 | 232 | 0.0 | 4.3 | 0.00 | 0.28 | 0.05 | 47 | 1006.5 |
| 20260503220021 | 52 | 285 | 0.9 | 5.2 | 0.00 | 0.28 | 0.05 | 47 | 1006.3 |
| 20260503214520 | 52 | 244 | 0.9 | 4.3 | 0.00 | 0.28 | 0.05 | 49 | 1006.1 |
| 20260503213006 | 53 | 278 | 1.7 | 8.7 | 0.00 | 0.28 | 0.05 | 48 | 1006.0 |
| 20260503211509 | 53 | 191 | 1.7 | 7.0 | 0.00 | 0.28 | 0.05 | 49 | 1005.7 |
| 20260503210012 | 53 | 290 | 0.9 | 9.6 | 0.00 | 0.28 | 0.05 | 49 | 1005.5 |
| 20260503204519 | 54 | 32 | 1.7 | 8.7 | 0.00 | 0.28 | 0.05 | 52 | 1005.3 |
| 20260503203031 | 53 | 249 | 0.9 | 5.2 | 0.00 | 0.28 | 0.05 | 53 | 1005.1 |
| 20260503201524 | 53 | 15 | 3.5 | 9.6 | 0.00 | 0.28 | 0.05 | 53 | 1005.1 |
| 20260503200012 | 51 | 253 | 1.7 | 9.6 | 0.00 | 0.28 | 0.05 | 62 | 1005.2 |
| 20260503194517 | 50 | 233 | 0.0 | 4.3 | 0.00 | 0.28 | 0.05 | 70 | 1005.3 |
| 20260503193021 | 49 | 5 | 0.0 | 4.3 | 0.00 | 0.28 | 0.05 | 73 | 1005.4 |
| 20260503191524 | 50 | 271 | 1.7 | 7.8 | 0.00 | 0.28 | 0.05 | 64 | 1005.5 |
| 20260503190026 | 51 | 337 | 0.9 | 7.0 | 0.00 | 0.28 | 0.05 | 63 | 1005.4 |
| 20260503184517 | 50 | 316 | 2.6 | 6.1 | 0.00 | 0.28 | 0.05 | 64 | 1005.6 |
| 20260503183024 | 48 | 41 | 2.6 | 5.2 | 0.00 | 0.28 | 0.05 | 67 | 1005.6 |
| 20260503181524 | 48 | 23 | 2.6 | 7.8 | 0.00 | 0.28 | 0.05 | 69 | 1005.5 |
| 20260503180023 | 48 | 312 | 1.7 | 6.1 | 0.00 | 0.28 | 0.05 | 73 | 1005.4 |
| 20260503174509 | 46 | 217 | 0.9 | 3.5 | 0.00 | 0.28 | 0.05 | 83 | 1005.4 |
| 20260503173013 | 45 | 30 | 0.9 | 5.2 | 0.00 | 0.28 | 0.05 | 85 | 1005.3 |
| 20260503171520 | 45 | 272 | 1.7 | 7.8 | 0.00 | 0.28 | 0.05 | 83 | 1005.3 |
| 20260503081515 | 45 | 335 | 0.0 | 1.7 | 0.01 | 0.27 | 0.04 | 96 | 1006.6 |
| 20260503071506 | 46 | 347 | 0.9 | 3.5 | 0.00 | 0.26 | 0.03 | 96 | 1007.1 |
| 20260503054509 | 47 | 216 | 0.0 | 0.9 | 0.01 | 0.25 | 0.02 | 96 | 1008.3 |
| 20260503053004 | 47 | 216 | 0.0 | 0.9 | 0.01 | 0.25 | 0.02 | 96 | 1008.3 |
| 20260503051503 | 47 | 210 | 0.0 | 0.0 | 0.01 | 0.25 | 0.02 | 96 | 1008.3 |
| 20260503050002 | 47 | 210 | 0.0 | 0.0 | 0.02 | 0.25 | 0.02 | 96 | 1008.6 |
| 20260503044508 | 47 | 202 | 0.0 | 0.0 | 0.02 | 0.24 | 0.01 | 96 | 1009.2 |
| 20260503043002 | 47 | 165 | 0.0 | 0.0 | 0.03 | 0.24 | 0.01 | 96 | 1009.3 |
| 20260503041502 | 47 | 152 | 0.0 | 0.0 | 0.04 | 0.24 | 0.01 | 96 | 1009.5 |
| 20260503040003 | 47 | 152 | 0.0 | 0.0 | 0.03 | 0.23 | 0.00 | 96 | 1009.5 |
| 20260503034503 | 48 | 151 | 0.0 | 0.0 | 0.03 | 0.22 | 0.22 | 96 | 1009.5 |
| 20260503033002 | 48 | 151 | 0.0 | 0.0 | 0.03 | 0.21 | 0.21 | 95 | 1009.4 |
| 20260503031503 | 48 | 134 | 0.0 | 0.9 | 0.04 | 0.20 | 0.20 | 95 | 1009.7 |
| 20260503030006 | 48 | 127 | 0.0 | 0.9 | 0.06 | 0.20 | 0.20 | 95 | 1009.9 |
| 20260503024502 | 48 | 126 | 0.0 | 0.0 | 0.08 | 0.19 | 0.19 | 95 | 1010.0 |
| 20260503023002 | 48 | 163 | 0.0 | 0.0 | 0.08 | 0.18 | 0.18 | 95 | 1010.2 |
| 20260503021502 | 48 | 143 | 0.0 | 0.9 | 0.07 | 0.16 | 0.16 | 95 | 1010.2 |
| 20260503020007 | 48 | 130 | 0.0 | 0.9 | 0.07 | 0.14 | 0.14 | 95 | 1010.3 |
| 20260503014505 | 48 | 146 | 0.0 | 0.9 | 0.05 | 0.11 | 0.11 | 95 | 1010.3 |
| 20260503013003 | 48 | 146 | 0.0 | 0.0 | 0.05 | 0.10 | 0.10 | 95 | 1010.6 |
| 20260503011503 | 48 | 146 | 0.0 | 0.0 | 0.04 | 0.09 | 0.09 | 95 | 1010.9 |
| 20260503010005 | 48 | 155 | 0.0 | 0.0 | 0.03 | 0.07 | 0.07 | 95 | 1010.7 |
| 20260503004504 | 48 | 155 | 0.0 | 0.0 | 0.02 | 0.06 | 0.06 | 95 | 1010.6 |
| 20260503003007 | 48 | 155 | 0.0 | 0.0 | 0.02 | 0.05 | 0.05 | 94 | 1010.8 |
| 20260503001503 | 48 | 155 | 0.0 | 0.0 | 0.04 | 0.05 | 0.05 | 94 | 1010.7 |
| 20260503000006 | 48 | 152 | 0.0 | 0.9 | 0.04 | 0.04 | 0.04 | 94 | 1010.8 |
| 20260502234508 | 49 | 142 | 0.0 | 0.9 | 0.04 | 0.04 | 0.04 | 93 | 1010.6 |
| 20260502233006 | 50 | 144 | 0.0 | 2.6 | 0.03 | 0.03 | 0.03 | 89 | 1010.5 |
| 20260502230012 | 51 | 203 | 0.0 | 1.7 | 0.00 | 0.00 | 0.00 | 83 | 1010.5 |
| 20260502224507 | 51 | 185 | 0.0 | 2.6 | 0.00 | 0.00 | 0.00 | 82 | 1010.3 |